Regional Weather Roundup
Issued by NWS Goodland, KS

Home | Current Version | Previous Version | Text Only | Print | Product List | Glossary Off
Versions: 1 2 3 4 5 6 7 8 9 10 11 12 13 14 15 16 17 18 19 20 21 22 23 24 25 26 27 28 29 30 31 32 33 34 35 36 37 38 39 40 41 42 43 44 45 46 47 48 49 50

692
ASUS43 KGLD 071959
RWRGLD

GOODLAND FORECAST AREA HOURLY WEATHER ROUNDUP
NATIONAL WEATHER SERVICE GOODLAND KS
100 PM MST SUN FEB 07 2016

...OFFICIAL OBSERVATIONS...

CITY           SKY/WX    TMP DP  RH WIND       PRES   REMARKS
GOODLAND KS    MOSUNNY   37  21  52 NW22G32   30.27F
HILL CITY KS   CLOUDY    41  27  57 NW18G25   30.22F
IMPERIAL NEB   SUNNY     38  21  50 NW22G33   30.24F
MCCOOK NEB     MOSUNNY   40  23  50 NW24G35   30.20F
AKRON CO       CLOUDY    30  19  63 NW28G38   30.29F WCI  15
BURLINGTON CO  SUNNY     34  19  54 NW21      30.30F
LIMON CO       MOSUNNY   28  21  75 N15       30.32F WCI  16
$$

...UNOFFICIAL OBSERVATIONS...

CITY           SKY/WX    TMP DP  RH WIND       PRES   REMARKS
COLBY KS       PTSUNNY   37  28  70 NW20G28   30.25F
GOVE KS          N/A     41  32  70 MISG        N/A
LENORA KS        N/A     38  32  79 MISG        N/A
NORTON KS      PTSUNNY   39  23  52 W24       30.18F
SHARON SPRINGS   N/A     37  25  62 N22         N/A
KIT CARSON CO    N/A     34  23  63 MISG        N/A
YUMA CO          N/A     33  23  67 N16         N/A
$$




USA.gov is the U.S. government's official web portal to all federal, state and local government web resources and services.